Location: Bayview
(38.0070°N, 122.3188°W)
Time: 09:28:03
(UTC+00:00)

N. Korean satellite - Visible Passes

Search period start: 05 October 2022 00:00
Search period end: 15 October 2022 00:00
Orbit: 426 x 467 km, 97.3° (Epoch: 04 October)

Date Brightness Start Highest point End Pass type
(mag) Time Alt. Az. Time Alt. Az. Time Alt. Az.
05 Oct 6.3 13:23:55 10° NNE 13:27:11 86° ESE 13:30:27 10° SSW visible
06 Oct 8.9 12:48:23 10° NE 12:51:05 23° E 12:53:46 10° SSE visible
08 Oct 7.4 13:08:21 10° NNE 13:11:32 47° E 13:14:42 10° S visible
09 Oct 9.7 12:33:16 10° ENE 12:35:11 15° E 12:37:04 10° SE visible
10 Oct 6.2 13:28:23 10° N 13:31:40 81° WNW 13:34:57 10° SSW visible
11 Oct 8.7 12:52:26 10° NE 12:55:18 27° E 12:58:08 10° SSE visible
13 Oct 7.2 13:11:52 10° NNE 13:15:06 54° E 13:18:20 10° S visible
14 Oct 9.6 12:36:18 10° NE 12:38:27 16° E 12:40:36 10° SE visible
